This demonstration page uses our WeatherBlox Daily Observations layout. Learn more.

Left ArrowRight Arrow

41.86663, -103.66717

Hourly Observations for November 29, 2016

Temp ( °F °C ) Dew Point ( °F °C ) Humidity (%) Winds ( mph kmh ) Pressure ( in mb ) Visibility ( mi km ) Precip ( " mm )
12:53 am 00:53 Windy with Snow Likely 33 0.6 26 -3.3 75 75 WNW 22 35 29.44 997 8 13 N/A
1:50 am 01:50 Cloudy 34 1 25 -4 70 70 NW 25 41 29.59 1002 10 16 N/A
1:53 am 01:53 Cloudy 33 0.6 26 -3.3 75 75 NW 24 39 29.47 998 10 16 N/A
2:35 am 02:35 Cloudy 31 -0.6 25 -3.9 79 79 WNW 16 26 29.62 1003 10 16 N/A
2:53 am 02:53 Cloudy 32 undefined 23 -5 69 69 NW 22 35 29.50 999 10 16 N/A
3:32 am 03:32 Windy with Snow Likely 32 undefined 25 -4 75 75 WNW 22 35 29.59 1002 6 10 N/A
3:53 am 03:53 Windy with Snow Likely 32 undefined 24 -4.4 73 73 WNW 26 43 29.52 1000 5 8 N/A
4:53 am 04:53 Cloudy with Light Wintry Mix 31 -0.6 24 -4.4 76 76 WNW 25 41 29.55 1001 9 14 N/A
5:29 am 05:29 Windy with Snow Likely 30 -1.1 24 -4.4 79 79 WNW 23 37 29.65 1004 5 8 N/A
5:53 am 05:53 Cloudy 30 -1.1 24 -4.4 79 79 WNW 22 35 29.59 1002 9 14 N/A
6:53 am 06:53 Windy with Snow Likely 30 -1.1 22 -5.6 72 72 NW 30 48 29.62 1003 10 16 N/A
7:53 am 07:53 Cloudy 31 -0.6 18 -7.8 59 59 NW 38 61 29.65 1004 10 16 N/A
8:53 am 08:53 Cloudy 32 undefined 17 -8.3 54 54 NW 35 56 29.68 1005 10 16 N/A
9:53 am 09:53 Cloudy 33 0.6 16 -8.9 49 49 NW 33 54 29.72 1006 10 16 N/A
10:53 am 10:53 Cloudy 34 1.1 16 -8.9 48 48 NW 39 63 29.73 1007 10 16 N/A
11:53 am 11:53 Cloudy 35 1.7 17 -8.3 48 48 NW 38 61 29.73 1007 10 16 N/A
12:53 pm 12:53 Cloudy 35 1.7 19 -7.2 52 52 NW 35 56 29.76 1008 10 16 N/A
1:53 pm 13:53 Cloudy with Light Wintry Mix 34 1.1 18 -7.8 52 52 NW 30 48 29.78 1009 10 16 N/A
2:53 pm 14:53 Cloudy with Light Wintry Mix 33 0.6 19 -7.2 56 56 NW 32 52 29.81 1010 8 13 N/A
3:53 pm 15:53 Cloudy 34 1.1 16 -8.9 48 48 NW 30 48 29.84 1011 10 16 N/A
4:53 pm 16:53 Cloudy 33 0.6 17 -8.3 52 52 NW 28 44 29.87 1012 10 16 N/A
5:53 pm 17:53 Cloudy 33 0.6 16 -8.9 49 49 NW 28 44 29.89 1012 10 16 N/A
6:53 pm 18:53 Cloudy 34 1.1 14 -10 44 44 NNW 32 52 29.90 1013 10 16 N/A
7:53 pm 19:53 Cloudy 34 1.1 14 -10 44 44 NW 28 44 29.91 1013 10 16 N/A
8:53 pm 20:53 Cloudy 34 1 14 -10 44 44 NW 24 39 30.00 1016 10 16 N/A
9:53 pm 21:53 Cloudy 33 0.6 14 -10 45 45 WNW 21 33 29.94 1014 10 16 N/A
10:53 pm 22:53 Mostly Cloudy 32 undefined 15 -9.4 50 50 NW 20 31 29.94 1014 10 16 N/A
11:53 pm 23:53 Mostly Cloudy 31 -0.6 15 -9.4 52 52 WNW 18 30 29.93 1014 10 16 N/A

Powered by AerisWeather